[[[{"header":{"parameterUnit":"kt","parameterCategory":2,"dx":1,"dy":1,"la1":30.253999710083008,"la2":30.299108505249023,"lo1":-89.0895004272461,"lo2":-89.04439544677734,"nx":28,"ny":28,"refTime":"2022-10-23T21:00:00:Z","depth":0,"parameterNumber":1,"parameterNumberName":"U-component_of_WINDS"},"data":[-5.7227,-5.7267,-5.7309,-5.7376,-5.7425,-5.7479,-5.7512,-5.756,-5.7608,-5.768,-5.7729,-5.7777,-5.7844,-5.7915,-5.7972,-5.7993,-5.8014,-5.7999,-5.8026,-5.8051,-5.8057,-5.8063,-5.8055,-5.8003,-5.8003,-5.7994,-5.7994,-5.7993,-5.725,-5.7298,-5.7345,-5.7418,-5.746,-5.75,-5.7563,-5.7595,-5.7642,-5.7702,-5.7751,-5.7818,-5.7876,-5.7949,-5.8014,-5.8037,-5.8059,-5.8051,-5.805,-5.806,-5.8089,-5.808,-5.8032,-5.8032,-5.8032,-5.8032,-5.8032,-5.8032,-5.7303,-5.7324,-5.7392,-5.7443,-5.7491,-5.7541,-5.757,-5.7626,-5.7673,-5.7742,-5.7783,-5.7837,-5.7906,-5.8003,-5.8046,-5.8092,-5.8108,-5.8112,-5.8113,-5.8113,-5.8108,-5.812,-5.8104,-5.8105,-5.8105,-5.8105,-5.8105,0,-5.7354,-5.7387,-5.7432,-5.7492,-5.7531,-5.758,-5.7633,-5.7653,-5.7736,-5.7772,-5.7827,-5.7865,-5.7943,-5.8001,-5.8069,-5.8113,-5.8157,-5.8166,-5.817,-5.815,-5.8125,-5.814,-5.8186,-5.8165,-5.8166,-5.8166,-5.8167,-5.8167,-5.741,-5.7429,-5.7518,-5.7545,-5.7583,-5.7626,-5.766,-5.7732,-5.7765,-5.7841,-5.7858,-5.7916,-5.7965,-5.8047,-5.8113,-5.8171,-5.8193,-5.8181,-5.8202,-5.8184,-5.8194,-5.8192,-5.8196,-5.8175,-5.8174,-5.8173,-5.8172,0,-5.7438,-5.7503,-5.7546,-5.7632,-5.7655,-5.7672,-5.7747,-5.7772,-5.7823,-5.7865,-5.7879,-5.7958,-5.8011,-5.8079,-5.8152,-5.8186,-5.8222,-5.8242,-5.82,-5.8208,-5.8205,-5.8204,-5.818,-5.8182,-5.8236,-5.8236,-5.8235,0,-5.751,-5.7532,-5.7629,-5.765,-5.7679,-5.7749,-5.7776,-5.7822,-5.7879,-5.7912,-5.7972,-5.8003,-5.8083,-5.8125,-5.8175,-5.8216,-5.8229,-5.8257,-5.827,-5.8251,-5.8248,-5.8269,-5.8271,-5.8296,-5.8297,-5.8297,-5.8297,0,-5.7546,-5.7622,-5.7657,-5.7685,-5.7777,-5.7793,-5.7832,-5.7895,-5.7927,-5.798,-5.8002,-5.8058,-5.8088,-5.8133,-5.8195,-5.8207,-5.8246,-5.8275,-5.8275,-5.8274,-5.8278,-5.8276,-5.8241,-5.8297,-5.8297,-5.8297,-5.8297,0,-5.7613,-5.7662,-5.7702,-5.7781,-5.7798,-5.7821,-5.788,-5.7915,-5.7977,-5.8009,-5.8051,-5.8097,-5.8136,-5.8161,-5.8217,-5.8215,-5.8243,-5.8273,-5.8274,-5.828,-5.8305,-5.8276,-5.8235,-5.8233,-5.829,-5.829,-5.829,0,-5.7637,-5.7693,-5.7752,-5.7789,-5.7824,-5.7888,-5.7915,-5.7967,-5.8011,-5.8049,-5.8099,-5.8141,-5.8173,-5.8195,-5.8214,-5.8267,-5.827,-5.8269,-5.8325,-5.8326,-5.8307,-5.827,-5.8246,-5.8237,-5.829,-5.829,-5.829,0,-5.7662,-5.777,-5.7772,-5.7807,-5.7884,-5.7913,-5.7944,-5.7999,-5.8021,-5.8072,-5.81,-5.816,-5.8187,-5.8222,-5.8264,-5.828,-5.8271,-5.8307,-5.8309,-5.8299,-5.8294,-5.8273,-5.8271,-5.8296,-5.8296,-5.8296,-5.829,0,-5.775,-5.7785,-5.7793,-5.7863,-5.7896,-5.7921,-5.7988,-5.8013,-5.8051,-5.8096,-5.8138,-5.8195,-5.8251,-5.8265,-5.8301,-5.8316,-5.8324,-5.835,-5.8377,-5.8352,-5.8352,-5.8351,-5.8373,-5.8374,-5.8375,-5.8376,0,0,-5.7756,-5.7807,-5.7867,-5.7898,-5.7929,-5.7992,-5.8013,-5.8051,-5.8123,-5.8144,-5.816,-5.825,-5.8294,-5.8338,-5.8336,-5.8358,-5.8367,-5.8371,-5.8363,-5.8361,-5.836,-5.8359,-5.8357,-5.8377,-5.8378,-5.8378,-5.8378,0,-5.7801,-5.7844,-5.7863,-5.7904,-5.7967,-5.8012,-5.8017,-5.809,-5.8119,-5.8158,-5.821,-5.8243,-5.831,-5.8352,-5.8382,-5.8369,-5.8405,-5.8381,-5.8352,-5.8371,-5.8368,-5.8365,-5.8363,-5.8361,-5.8381,-5.8381,-5.8381,0,-5.7838,-5.7891,-5.7906,-5.7977,-5.8018,-5.8051,-5.8096,-5.8127,-5.8153,-5.8218,-5.8256,-5.8296,-5.8356,-5.8387,-5.8403,-5.8418,-5.8436,-5.844,-5.8436,-5.8438,-5.846,-5.8456,-5.8453,-5.8496,-5.8496,-5.8496,0,0,-5.7867,-5.7899,-5.7976,-5.7991,-5.8013,-5.808,-5.8103,-5.8142,-5.8193,-5.8214,-5.8264,-5.8314,-5.8355,-5.838,-5.8421,-5.8445,-5.8464,-5.8452,-5.8446,-5.8441,-5.8441,-5.8461,-5.8458,-5.8497,-5.8497,-5.8497,0,0,-5.7881,-5.7971,-5.7998,-5.8024,-5.8071,-5.8147,-5.8155,-5.8191,-5.8233,-5.8237,-5.8304,-5.832,-5.835,-5.8386,-5.8385,-5.8431,-5.8456,-5.8458,-5.8406,-5.84,-5.8395,-5.8385,-5.8437,0,0,0,0,0,-5.7959,-5.796,-5.7984,-5.7998,-5.8085,-5.8134,-5.8146,-5.82,-5.8218,-5.8223,-5.8272,-5.8308,-5.84,-5.8401,-5.8414,-5.8413,-5.8503,-5.8502,-5.8501,-5.844,-5.8433,-5.8428,0,0,0,0,0,0,-5.7965,-5.7981,-5.7985,-5.806,-5.808,-5.8135,-5.8177,-5.8192,-5.8219,-5.8225,-5.8297,-5.831,-5.8357,-5.8398,-5.8409,-5.8407,-5.8434,-5.8503,-5.8502,-5.8501,-5.8438,-5.8432,-5.8427,0,0,0,0,0,-5.797,-5.7983,-5.8108,-5.806,-5.8078,-5.8151,-5.8177,-5.819,-5.8212,-5.8286,-5.8299,-5.825,-5.8356,-5.8369,-5.8405,-5.8401,-5.8427,-5.8431,-5.8502,-5.8501,-5.8501,-5.8435,0,0,0,0,0,0,-5.7974,-5.7996,-5.8113,-5.8121,-5.8063,-5.8149,-5.8164,-5.8188,-5.8272,-5.8285,-5.8242,-5.8246,-5.8355,-5.8365,-5.8375,-5.8396,-5.8421,-5.8425,-5.8427,-5.8502,-5.8501,-5.8501,0,0,0,0,0,0,-5.7989,-5.8001,-5.8117,-5.8117,-5.8126,-5.8147,-5.816,-5.8198,-5.8272,-5.8223,-5.8229,-5.8243,-5.834,-5.8362,-5.837,-5.8427,-5.8416,-5.842,-5.8423,-5.8424,-5.8501,-5.8501,0,0,0,0,0,0,-5.7995,-5.8006,-5.8116,-5.8122,-5.8129,-5.8217,-5.8181,-5.8268,-5.8272,-5.8219,-5.8274,-5.8274,-5.8337,-5.8346,-5.8367,-5.842,-5.8425,-5.8417,-5.8419,-5.8421,-5.8422,0,0,0,0,0,0,0,-5.8,-5.7914,-5.8069,-5.8126,-5.8132,-5.819,-5.8192,-5.8194,-5.8272,-5.8273,-5.8273,-5.8274,-5.8395,-5.8399,-5.8403,-5.8414,0,0,-5.8416,-5.8418,0,0,0,0,0,0,0,0,-5.7911,-5.7914,-5.8069,-5.8071,-5.8072,-5.819,-5.8192,-5.8193,-5.8272,-5.8273,-5.8273,-5.8274,-5.8396,-5.84,-5.8403,0,0,0,0,0,0,0,0,0,0,0,0,0,0,0,-5.8069,-5.8071,0,-5.819,-5.8192,-5.8193,-5.8272,-5.8273,-5.8273,-5.8274,-5.8397,-5.84,-5.8403,0,0,0,0,0,0,0,0,0,0,0,0,0,0,0,0,0,0,0,0,0,0,0,0,0,0,0,0,0,0,0,0,0,0,0,0,0,0,0,0,0,0,0,0,0,0,0,0,0,0,0,0,0,0,0,0,0,0,0,0,0,0,0,0,0,0,0,0,0]}],[{"header":{"parameterUnit":"kt","parameterCategory":2,"dx":1,"dy":1,"la1":30.253999710083008,"la2":30.299108505249023,"lo1":-89.0895004272461,"lo2":-89.04439544677734,"nx":28,"ny":28,"refTime":"2022-10-23T21:00:00:Z","depth":0,"parameterNumber":2,"parameterNumberName":"V-component_of_WINDS"},"data":[6.2414,6.2464,6.256,6.2664,6.2768,6.2858,6.2921,6.3015,6.3114,6.3236,6.3324,6.3429,6.357,6.3702,6.3806,6.3852,6.3891,6.384,6.3903,6.4037,6.4062,6.4086,6.4081,6.3846,6.3845,6.3753,6.3752,6.3751,6.2516,6.2618,6.2698,6.2843,6.2915,6.3024,6.3149,6.3203,6.3281,6.3402,6.3492,6.3608,6.3713,6.3874,6.3993,6.4025,6.4085,6.4051,6.4052,6.4074,6.4219,6.4212,6.4001,6.4001,6.4001,6.4001,6.4001,6.4001,6.2726,6.275,6.2893,6.2983,6.3081,6.3178,6.322,6.3346,6.3429,6.3559,6.3659,6.375,6.3892,6.4082,6.417,6.4247,6.4303,6.4297,6.4297,6.4294,6.428,6.4412,6.4271,6.4272,6.4273,6.4274,6.4274,0,6.2912,6.2991,6.3072,6.3184,6.3255,6.3351,6.3456,6.3484,6.3686,6.3745,6.3841,6.3913,6.4056,6.416,6.4292,6.4386,6.4508,6.4528,6.4526,6.4481,6.4427,6.4463,6.4702,6.4531,6.4534,6.4536,6.4537,6.4538,6.3137,6.315,6.3344,6.339,6.347,6.3539,6.3602,6.3778,6.3837,6.3993,6.4008,6.4112,6.4205,6.4343,6.4493,6.4601,6.4661,6.4587,6.4678,6.4636,6.4669,6.4668,6.4674,6.4566,6.4562,6.456,6.4557,0,6.3256,6.3411,6.3464,6.3654,6.3703,6.371,6.3876,6.3908,6.4026,6.4088,6.4113,6.4299,6.439,6.4553,6.4688,6.4771,6.4798,6.4851,6.4753,6.4774,6.4728,6.4733,6.454,6.4528,6.4767,6.4765,6.4762,0,6.3511,6.3521,6.3754,6.3776,6.3797,6.3972,6.3988,6.4091,6.4213,6.4263,6.4423,6.4467,6.4667,6.4736,6.4857,6.4907,6.493,6.4999,6.5032,6.4986,6.4978,6.5023,6.5036,6.5096,6.5097,6.5098,6.5099,0,6.3684,6.3817,6.3854,6.391,6.4113,6.4127,6.4212,6.4348,6.4406,6.4508,6.455,6.4655,6.4713,6.4795,6.495,6.5006,6.5011,6.5121,6.5082,6.5079,6.5076,6.5074,6.4861,6.51,6.51,6.51,6.5101,0,6.3914,6.4009,6.4035,6.4211,6.4239,6.4261,6.4378,6.4434,6.4565,6.4643,6.4724,6.485,6.49,6.5,6.5075,6.5106,6.5157,6.5225,6.5225,6.5242,6.5349,6.5213,6.4989,6.4975,6.5257,6.5259,6.526,0,6.4074,6.4139,6.4289,6.431,6.4363,6.4542,6.4572,6.4681,6.4786,6.485,6.4968,6.5037,6.5144,6.5188,6.5204,6.5329,6.5288,6.5338,6.5436,6.5438,6.5401,6.5197,6.5124,6.502,6.5278,6.5276,6.5275,0,6.4216,6.4458,6.445,6.4524,6.4692,6.4736,6.4767,6.4874,6.4909,6.501,6.5046,6.5143,6.5232,6.53,6.5412,6.542,6.5321,6.5512,6.5518,6.5477,6.5298,6.5231,6.5213,6.5396,6.5394,6.5393,6.5289,0,6.4541,6.4591,6.4575,6.4723,6.4781,6.4799,6.4967,6.5007,6.5111,6.522,6.5271,6.5398,6.5505,6.5523,6.5622,6.5584,6.5617,6.5707,6.5816,6.5678,6.5649,6.5636,6.5847,6.5851,6.5855,6.5858,0,0,6.4658,6.4732,6.4892,6.4927,6.4986,6.5169,6.5175,6.5254,6.5406,6.5445,6.5508,6.5662,6.5761,6.5805,6.5775,6.5815,6.5826,6.5865,6.5741,6.5727,6.5715,6.5681,6.5665,6.5864,6.5865,6.5866,6.5868,0,6.4812,6.4905,6.4906,6.4995,6.5132,6.5247,6.5247,6.5414,6.5484,6.553,6.5681,6.573,6.5843,6.5933,6.5993,6.5864,6.5976,6.5883,6.5761,6.577,6.5752,6.5736,6.5698,6.5681,6.5876,6.5876,6.5875,0,6.4986,6.5109,6.5125,6.5263,6.5353,6.54,6.5557,6.5597,6.5636,6.5831,6.5874,6.5966,6.6096,6.6111,6.6123,6.6181,6.6104,6.6153,6.6136,6.6141,6.6159,6.6137,6.6116,6.6381,6.6382,6.6383,0,0,6.5096,6.5141,6.5325,6.5308,6.5355,6.5524,6.5563,6.567,6.5781,6.5825,6.5945,6.605,6.6121,6.6162,6.6235,6.6225,6.627,6.6209,6.6185,6.6165,6.6159,6.6171,6.6149,6.6387,6.6387,6.6388,0,0,6.5149,6.5362,6.5445,6.5445,6.5546,6.5727,6.5711,6.5818,6.5899,6.5916,6.6097,6.6132,6.6148,6.6231,6.6268,6.6278,6.6382,6.6377,6.6222,6.6194,6.6171,6.6152,6.6445,0,0,0,0,0,6.5391,6.5337,6.5409,6.5434,6.5607,6.5686,6.5709,6.5857,6.5931,6.5916,6.6035,6.6149,6.629,6.6326,6.6349,6.6307,6.644,6.6431,6.6422,6.6222,6.6191,6.6165,0,0,0,0,0,0,6.5402,6.5431,6.5412,6.5586,6.5627,6.5689,6.5847,6.5886,6.5936,6.5958,6.6122,6.6154,6.6282,6.6325,6.6343,6.63,6.644,6.6437,6.6429,6.6421,6.6211,6.6186,6.6165,0,0,0,0,0,6.5411,6.5435,6.5672,6.5589,6.5624,6.5808,6.585,6.5884,6.5925,6.6106,6.6142,6.6032,6.6276,6.6302,6.6336,6.6288,6.6428,6.6434,6.6431,6.6425,6.642,6.6199,0,0,0,0,0,0,6.5418,6.5468,6.5683,6.5699,6.5619,6.5808,6.5842,6.5881,6.6074,6.6108,6.6025,6.604,6.6272,6.6292,6.6311,6.6276,6.6419,6.6425,6.6429,6.6427,6.6422,6.6417,0,0,0,0,0,0,6.5456,6.548,6.5691,6.5721,6.5743,6.5806,6.5837,6.5886,6.6074,6.5983,6.6001,6.6029,6.6244,6.6285,6.63,6.6371,6.6412,6.6418,6.6422,6.6425,6.6423,6.6419,0,0,0,0,0,0,6.5469,6.549,6.5718,6.5734,6.5753,6.5948,6.5853,6.6021,6.6099,6.5972,6.611,6.6115,6.6234,6.6252,6.6292,6.6356,6.6367,6.6412,6.6416,6.6419,6.6421,0,0,0,0,0,0,0,6.5479,6.5304,6.5585,6.5745,6.5762,6.585,6.5855,6.5859,6.61,6.6105,6.6109,6.6113,6.6378,6.6385,6.6391,6.6343,0,0,6.6412,6.6415,0,0,0,0,0,0,0,0,6.5299,6.5303,6.5586,6.5589,6.5593,6.5851,6.5854,6.5858,6.6101,6.6104,6.6108,6.6111,6.638,6.6385,6.6391,0,0,0,0,0,0,0,0,0,0,0,0,0,0,0,6.5586,6.5589,0,6.5851,6.5854,6.5857,6.6101,6.6104,6.6107,6.611,6.6381,6.6386,6.639,0,0,0,0,0,0,0,0,0,0,0,0,0,0,0,0,0,0,0,0,0,0,0,0,0,0,0,0,0,0,0,0,0,0,0,0,0,0,0,0,0,0,0,0,0,0,0,0,0,0,0,0,0,0,0,0,0,0,0,0,0,0,0,0,0,0,0,0,0]}]]]